Location: La Vergne
(36.0160°N, 86.5820°W)
Time: 17:53:06
(UTC-06:00)

SL-27 R/B - Pass Details

Date: 24 September 2017
Orbit: 424 x 476 km, 74.7° (Epoch: 11 December)

Event Time Altitude Azimuth Distance (km) Brightness Sun altitude
Rises 20:22:01 0° 198° (SSW) 2,475 6.2 -21.3°
Reaches altitude 10° 20:24:06 10° 200° (SSW) 1,613 5.2 -21.7°
Enters shadow 20:26:39 45° 210° (SSW) 649 3.2 -22.2°
Exits shadow 20:33:01 - 15° (NNE) 2,368 6.1 -23.4°
Sets 20:33:25 0° 16° (NNE) 2,532 6.2 -23.5°
